Regional Weather Roundup
Issued by NWS Little Rock, AR

Home | Current Version | Previous Version | Text Only | Print | Product List | Glossary Off
Versions: 1 2 3 4 5 6 7 8 9 10 11 12 13 14 15 16 17 18 19 20 21 22 23 24 25 26 27 28 29 30 31 32 33 34 35 36 37 38 39 40 41 42 43 44 45 46 47 48 49 50

000
ASUS44 KLZK 211505
RWRLZK

WEATHER ROUNDUP FOR ARKANSAS
NATIONAL WEATHER SERVICE LITTLE ROCK AR
1000 AM CDT MON MAY 21 2018

NOTE: "FAIR" INDICATES FEW OR NO CLOUDS BELOW 12,000 FEET WITH NO
SIGNIFICANT WEATHER AND/OR OBSTRUCTIONS TO VISIBILITY.

ARZ001-003-010-029-211600-
NORTHWEST ARKANSAS

CITY           SKY/WX    TMP DP  RH WIND       PRES   REMARKS
FAYETTEVILLE   PTSUNNY   74  68  81 VRB5      30.09S
FORT SMITH     CLOUDY    74  68  81 SE6       30.07R
HARRISON       PTSUNNY   71  67  87 S3        30.09F
BENTONVILLE    CLOUDY    70  65  84 S3        30.12S
ROGERS         CLOUDY    69  65  86 VRB3      30.11S
SILOAM SPGS    CLOUDY    68  65  90 CALM      30.12R
HIGHFILL       CLOUDY    69  65  86 VRB3      30.11R
$$

ARZ004-005-016-211600-
NORTH CENTRAL ARKANSAS

CITY           SKY/WX    TMP DP  RH WIND       PRES   REMARKS
BATESVILLE     CLOUDY    72  68  88 CALM      30.07S
FLIPPIN        CLOUDY    70  67  90 CALM      30.08F
MTN HOME       CLOUDY    69  68  96 W3        30.08S
$$

ARZ040-041-211600-
WEST CENTRAL ARKANSAS

CITY           SKY/WX    TMP DP  RH WIND       PRES   REMARKS
MENA           CLOUDY    73  73 100 CALM      30.10R
MOUNT IDA      CLOUDY    73  71  93 CALM      30.06R
$$

ARZ009-017-025-026-028-211600-
NORTHEAST ARKANSAS

CITY           SKY/WX    TMP DP  RH WIND       PRES   REMARKS
CORNING        FAIR      73  73 100 SW9       30.07R
JONESBORO      FAIR      76  72  87 S9        30.07R
NEWPORT        FAIR      75  69  81 S5        30.06S
WALNUT RIDGE     N/A     73  69  87 S5        30.06S
BLYTHEVILLE    FAIR      73  68  84 S8        30.08R
NW BLYTHEVILLE PTSUNNY   73  68  83 SE8       30.07R
$$

ARZ022-023-033-042-044-211600-
CENTRAL ARKANSAS

CITY           SKY/WX    TMP DP  RH WIND       PRES   REMARKS
LITTLE ROCK    PTSUNNY   71  70  96 E5        30.04S
N LITTLE ROCK    N/A     70  69  98 N5        30.00R
JACKSONVILLE   CLOUDY    72  72 100 N5        30.05R
CONWAY         MOSUNNY   73  72  94 NW5       30.06R
SEARCY         FAIR      74  71  91 S3        30.07R
HOT SPRINGS    CLOUDY    72  71  97 W5        30.06R
RUSSELLVILLE   LGT RAIN  71  70  96 N7        30.06F
CLINTON        CLOUDY    72  68  88 W6        30.07F
$$

ARZ036-211600-
EAST ARKANSAS

CITY           SKY/WX    TMP DP  RH WIND       PRES   REMARKS
WEST MEMPHIS   PTSUNNY   75  71  87 SE14      30.06R
$$

ARZ050-053-066-070-073-211600-
SOUTHWEST ARKANSAS

CITY           SKY/WX    TMP DP  RH WIND       PRES   REMARKS
ARKADELPHIA    FAIR      74  69  85 CALM      30.06R
CAMDEN         PTSUNNY   82  68  61 VRB5      30.04S HX  85
TEXARKANA      MOSUNNY   75  72  90 S5        30.06S
EL DORADO      CLOUDY    76  74  93 CALM      30.06R
DE QUEEN       CLOUDY    76  72  87 VRB3      30.04R
$$

ARZ056-057-069-211600-
SOUTHEAST ARKANSAS

CITY           SKY/WX    TMP DP  RH WIND       PRES   REMARKS
PINE BLUFF     FAIR      78  69  73 E8        30.04S
STUTTGART      FAIR      77  69  76 SE10      30.05S
MONTICELLO     PTSUNNY   79  70  74 E5        30.05S

$$





USA.gov is the U.S. government's official web portal to all federal, state and local government web resources and services.